Location: Taio
(46.3224°N, 11.0658°E)
Time: 22:34:45
(UTC+02:00)

ISS - Visible Passes

Search period start: 28 July 2021 00:00
Search period end: 07 August 2021 00:00
Orbit: 419 x 421 km, 51.6° (Epoch: 28 July)

Date Brightness Start Highest point End Pass type
(mag) Time Alt. Az. Time Alt. Az. Time Alt. Az.
28 Jul -3.8 22:23:41 10° WNW 22:27:04 73° SSW 22:28:39 28° SE visible
29 Jul -3.7 21:36:21 10° WNW 21:39:44 77° NNE 21:42:58 11° ESE visible
29 Jul -1.8 23:13:44 10° W 23:15:55 19° SW 23:15:55 19° SW visible
30 Jul -2.5 22:26:03 10° WNW 22:29:04 30° SW 22:30:17 23° S visible
31 Jul -3.1 21:38:33 10° WNW 21:41:50 46° SW 21:44:42 12° SE visible
01 Aug -1.2 22:29:24 10° WSW 22:30:49 12° SW 22:32:08 10° SSW visible
02 Aug -1.6 21:41:11 10° W 21:43:40 19° SW 21:46:08 10° S visible
